Regional Weather Roundup
Issued by NWS Charleston, WV

Home | Current Version | Previous Version | Graphics & Text | Print | Product List | Glossary On
Versions: 1 2 3 4 5 6 7 8 9 10 11 12 13 14 15 16 17 18 19 20 21 22 23 24 25 26
000
ASUS41 KRLX 121910
RWRRLX
West Virginia Regional Weather Roundup
National Weather Service Charleston WV
200 PM EST TUE DEC 12 2017

Note: "fair" indicates few or no clouds below 12,000 feet with no
significant weather and/or obstructions to visibility.

WVZ003-122000-
Northern Panhandle of West Virginia

CITY           SKY/WX    TMP DP  RH WIND       PRES   REMARKS
WHEELING       CLOUDY    23  11  60 NW22G30   29.73R WCI   8
$$

WVZ009-122000-
Northwest West Virginia

CITY           SKY/WX    TMP DP  RH WIND       PRES   REMARKS
PARKERSBURG    PTSUNNY   28   9  44 NW15G32   29.82R
$$

WVZ006-122000-
Western West Virginia

CITY           SKY/WX    TMP DP  RH WIND       PRES   REMARKS
HUNTINGTON     CLOUDY    31  17  56 NW17G26   29.85R
$$

WVZ015-122000-
West Central West Virginia

CITY           SKY/WX    TMP DP  RH WIND       PRES   REMARKS
CHARLESTON     FLURRIES  30  19  63 NW9G22    29.80R
$$

WVZ022-031-122000-
North Central West Virginia

CITY           SKY/WX    TMP DP  RH WIND       PRES   REMARKS
CLARKSBURG     CLOUDY    29  19  66 W20G28    29.70R
MORGANTOWN     CLOUDY    29  18  63 NW8       29.68R
$$

WVZ025-035-042-045-122000-
Southern West Virginia

CITY           SKY/WX    TMP DP  RH WIND       PRES   REMARKS
BECKLEY        LGT SNOW  26  22  84 NW16G25   29.66S VSB 3/4
LOGAN          SNOW      27  25  93 NW12G22   29.77R VSB 1/4
BLUEFIELD      LGT SNOW  27  22  81 W15G31    29.65S
LEWISBURG      LGT SNOW  31  26  82 NW10G16   29.62S
$$

WVZ047-122000-
Northern Mountains of West Virginia

CITY           SKY/WX    TMP DP  RH WIND       PRES   REMARKS
ELKINS         LGT SNOW  26  20  77 NW14G24   29.63R VSB 1
$$

WVZ052-122000-
Eastern Panhandle of West Virginia

CITY           SKY/WX    TMP DP  RH WIND       PRES   REMARKS
MARTINSBURG    CLOUDY    42  23  46 NW13G22   29.54F
PETERSBURG     LGT SNOW  32  25  73 NW14G25   29.61R
$$




USA.gov is the U.S. government's official web portal to all federal, state and local government web resources and services.